Погода в Бибиреве

Россия / Тверская область     56°22′36″N   32°18′03″E
темп.,
°C
ветер,
м/с
пор.,
м/с
влажн.,
%
обл.,
%
осадки,
мм/ч
давл.,
гПа
погр.,
м
15 апреля, чт
чт1500:00+5ссв4995100 3.1 1020328
03:00+5ссв51194100 4.1 1019392
06:00+5св51295100 0.0 1019462
09:00+5св51293100 0.3 1020495
12:00+6св51192100 0.6 1019568
15:00+8св61285100 0.9 1019749
18:00+7св61486100 0.0 1019744
21:00+6св61487100 0.0 1019660
16 апреля, пт
пт1600:00+6всв6158899 0.1 1019668
03:00+6св61491100 0.1 1019508
06:00+6всв61492100 0.1 1019612
09:00+6всв51389100 0.2 1020634
12:00+8всв51188100 0.9 1021611
15:00+10всв51080100 1.8 1022821
18:00+10всв61280100 0.3 1021845
21:00+8всв61482100 0.3 1022789
17 апреля, сб
сб1700:00+8всв51484100 0.0 1023662
03:00+7всв51384100 0.0 1023519
06:00+6всв4128498 0.0 1024502
09:00+6всв41081100 0.0 1025475
12:00+10всв4772100 0.0 1025725
15:00+12всв5862100 0.0 10251209
18:00+12всв596271 0.0 10241104
21:00+8всв4126860 0.0 1025539
18 апреля, вс
вс1800:00+6всв4126828 0.0 1026464
03:00+4всв412755 0.0 1026385
06:00+3св412810 0.0 1026352
09:00+8всв510592 0.0 1026602
12:00+12всв57430 0.0 10261263
15:00+13всв56385 0.0 10251673
18:00+12всв464593 0.0 10261499
21:00+6св39705 0.0 1027199
19 апреля, пн
пн1900:00+5всв310775 0.0 1028265
03:00+3всв27845 0.0 1028156
06:00+2всв278634 0.0 1029142
09:00+8в366159 0.0 1028474
12:00+12в464585 0.0 10271672
15:00+13в4543100 0.0 10272006
18:00+11вюв355696 0.0 1027917
21:00+9в2569100 0.0 1027121